ENT9FJ EPPO-LGKR

Flight info

Callsign ENT9FJ
Flight time 1h 57m
Altitude 37000
Route XIDNA DCT MISKA L616 DESEN DCT VALPI DCT OSDUK DCT RODON/N0385F190 N732 PITAS
Aircraft B738/M-SDE2E3FGHIRWXY/LB1

Departure

Time 2026-04-25 16:15
Airport Poznań-Ławica Airport (EPPO)

Arrival

Time 2026-04-25 18:12
Airport Corfu Ioannis Kapodistrias International Airport (LGKR)
Time Latitude Longitude Altitude Speed Heading
2026-04-25 15:47 52.41556 16.83198 287 ft 0 kts 193°
2026-04-25 16:03 52.41578 16.83204 287 ft 4 kts 181°
2026-04-25 16:03 52.41604 16.83199 287 ft 4 kts 153°
2026-04-25 16:03 52.41620 16.83175 287 ft 2 kts 103°
2026-04-25 16:04 52.41620 16.83173 287 ft 1 kts 103°
2026-04-25 16:09 52.41620 16.83174 287 ft 1 kts 103°
2026-04-25 16:09 52.41616 16.83203 287 ft 2 kts 103°
2026-04-25 16:09 52.41606 16.83270 291 ft 14 kts 103°
2026-04-25 16:09 52.41581 16.83453 291 ft 15 kts 102°
2026-04-25 16:10 52.41563 16.83619 287 ft 15 kts 91°
2026-04-25 16:10 52.41561 16.83780 287 ft 14 kts 93°
2026-04-25 16:10 52.41594 16.83918 287 ft 13 kts 50°
2026-04-25 16:10 52.41667 16.83999 287 ft 12 kts 23°
2026-04-25 16:11 52.41710 16.84027 287 ft 0 kts 21°
2026-04-25 16:11 52.41711 16.84028 287 ft 0 kts 21°
2026-04-25 16:12 52.41710 16.84028 287 ft 0 kts 21°
2026-04-25 16:13 52.41726 16.84038 287 ft 6 kts 21°
2026-04-25 16:13 52.41794 16.84076 288 ft 14 kts 15°
2026-04-25 16:13 52.41835 16.84006 288 ft 10 kts 289°
2026-04-25 16:13 52.41855 16.83902 289 ft 9 kts 288°
2026-04-25 16:14 52.41885 16.83752 290 ft 21 kts 288°
2026-04-25 16:14 52.41954 16.83398 288 ft 64 kts 288°
2026-04-25 16:14 52.42170 16.82282 291 ft 139 kts 288°
2026-04-25 16:14 52.42517 16.80491 571 ft 178 kts 287°
2026-04-25 16:15 52.42874 16.78523 1574 ft 181 kts 287°
2026-04-25 16:15 52.43255 16.76496 2303 ft 194 kts 288°
2026-04-25 16:15 52.43688 16.74268 2645 ft 210 kts 287°
2026-04-25 16:15 52.44125 16.71974 3342 ft 212 kts 283°
2026-04-25 16:16 52.44028 16.69579 4028 ft 218 kts 250°
2026-04-25 16:16 52.43160 16.67490 4719 ft 228 kts 230°
2026-04-25 16:16 52.41790 16.66083 5398 ft 243 kts 205°
2026-04-25 16:16 52.40063 16.65824 6093 ft 258 kts 179°
2026-04-25 16:17 52.38273 16.66470 6709 ft 268 kts 171°
2026-04-25 16:17 52.36460 16.67354 7260 ft 275 kts 169°
2026-04-25 16:17 52.34629 16.68297 7925 ft 276 kts 169°
2026-04-25 16:17 52.32754 16.69257 8332 ft 292 kts 169°
2026-04-25 16:18 52.30762 16.70268 8805 ft 305 kts 168°
2026-04-25 16:18 52.30103 16.70603 9036 ft 307 kts 168°
2026-04-25 16:18 52.26667 16.72333 10229 ft 317 kts 169°
2026-04-25 16:18 52.24479 16.73407 10448 ft 340 kts 169°
2026-04-25 16:19 52.22129 16.74552 10639 ft 363 kts 169°
2026-04-25 16:19 52.19638 16.75770 10895 ft 381 kts 169°
2026-04-25 16:19 52.17945 16.76601 11290 ft 386 kts 169°
2026-04-25 16:20 52.11873 16.79589 12929 ft 394 kts 170°
2026-04-25 16:20 52.10123 16.80445 13352 ft 397 kts 170°
2026-04-25 16:20 52.03918 16.83466 14910 ft 405 kts 170°
2026-04-25 16:21 52.02083 16.84356 15345 ft 407 kts 170°
2026-04-25 16:21 51.99356 16.85677 15957 ft 411 kts 170°
2026-04-25 16:21 51.96638 16.86991 16544 ft 414 kts 169°
2026-04-25 16:21 51.93864 16.88331 17123 ft 418 kts 169°
2026-04-25 16:22 51.91054 16.89688 17694 ft 421 kts 169°
2026-04-25 16:22 51.88230 16.91050 18234 ft 425 kts 169°
2026-04-25 16:22 51.85386 16.92418 18779 ft 428 kts 169°
2026-04-25 16:22 51.82521 16.93797 19313 ft 431 kts 169°
2026-04-25 16:23 51.79640 16.95182 19836 ft 434 kts 169°
2026-04-25 16:23 51.76733 16.96577 20334 ft 437 kts 169°
2026-04-25 16:23 51.73805 16.97979 20804 ft 440 kts 169°
2026-04-25 16:23 51.70835 16.99178 21274 ft 438 kts 177°
2026-04-25 16:24 51.67824 16.99618 21747 ft 432 kts 187°
2026-04-25 16:24 51.64842 16.99326 22183 ft 430 kts 192°
2026-04-25 16:24 51.61886 16.98899 22603 ft 433 kts 192°
2026-04-25 16:24 51.58872 16.98465 23026 ft 435 kts 192°
2026-04-25 16:25 51.55839 16.98044 23427 ft 438 kts 192°
2026-04-25 16:25 51.53825 16.97775 23692 ft 440 kts 191°
2026-04-25 16:25 51.49719 16.97248 24206 ft 444 kts 191°
2026-04-25 16:25 51.46614 16.96860 24576 ft 446 kts 191°
2026-04-25 16:26 51.43509 16.96475 24958 ft 449 kts 191°
2026-04-25 16:26 51.40387 16.96089 25323 ft 451 kts 191°
2026-04-25 16:26 51.37294 16.95707 25670 ft 453 kts 191°
2026-04-25 16:26 51.34146 16.95317 26013 ft 455 kts 191°
2026-04-25 16:27 51.30982 16.94927 26339 ft 457 kts 191°
2026-04-25 16:27 51.27805 16.94534 26648 ft 459 kts 191°
2026-04-25 16:27 51.24610 16.94139 26969 ft 461 kts 191°
2026-04-25 16:27 51.21392 16.93844 27242 ft 468 kts 186°
2026-04-25 16:28 51.18106 16.94314 27501 ft 480 kts 176°
2026-04-25 16:28 51.14828 16.95628 27791 ft 490 kts 166°
2026-04-25 16:28 51.11642 16.97634 28084 ft 494 kts 162°
2026-04-25 16:28 51.08466 16.99782 28355 ft 496 kts 162°
2026-04-25 16:29 51.05281 17.01948 28604 ft 498 kts 162°
2026-04-25 16:29 51.02082 17.04090 28830 ft 500 kts 162°
2026-04-25 16:29 50.98860 17.06205 29097 ft 500 kts 163°
2026-04-25 16:29 50.95679 17.08266 29433 ft 500 kts 163°
2026-04-25 16:30 50.92457 17.10339 29807 ft 498 kts 163°
2026-04-25 16:30 50.89244 17.12400 30148 ft 497 kts 163°
2026-04-25 16:30 50.86040 17.14455 30424 ft 497 kts 163°
2026-04-25 16:30 50.82821 17.16516 30714 ft 498 kts 164°
2026-04-25 16:31 50.79617 17.18557 31109 ft 495 kts 164°
2026-04-25 16:31 50.76435 17.20582 31511 ft 492 kts 164°
2026-04-25 16:31 50.73264 17.22595 31815 ft 491 kts 164°
2026-04-25 16:31 50.70090 17.24606 32081 ft 491 kts 164°
2026-04-25 16:32 50.66917 17.26612 32346 ft 491 kts 164°
2026-04-25 16:32 50.63785 17.28594 32653 ft 490 kts 164°
2026-04-25 16:32 50.60629 17.30588 32961 ft 488 kts 164°
2026-04-25 16:32 50.57473 17.32579 33265 ft 487 kts 165°
2026-04-25 16:33 50.54325 17.34562 33552 ft 486 kts 165°
2026-04-25 16:33 50.51171 17.36543 33754 ft 486 kts 165°
2026-04-25 16:33 50.48033 17.38514 34021 ft 485 kts 165°
2026-04-25 16:33 50.44894 17.40485 34283 ft 484 kts 165°
2026-04-25 16:34 50.41764 17.42446 34512 ft 484 kts 165°
2026-04-25 16:34 50.38632 17.44404 34680 ft 485 kts 165°
2026-04-25 16:34 50.35502 17.46365 34920 ft 484 kts 165°
2026-04-25 16:34 50.32413 17.48306 35153 ft 484 kts 165°
2026-04-25 16:35 50.29284 17.50271 35363 ft 484 kts 164°
2026-04-25 16:35 50.26139 17.52118 35538 ft 480 kts 170°
2026-04-25 16:35 50.22922 17.53409 35738 ft 475 kts 174°
2026-04-25 16:35 50.19703 17.54524 35951 ft 473 kts 174°
2026-04-25 16:36 50.16479 17.55599 36118 ft 473 kts 175°
2026-04-25 16:36 50.10058 17.57756 36377 ft 475 kts 174°
2026-04-25 16:36 50.06821 17.58874 36568 ft 475 kts 174°
2026-04-25 16:37 50.03597 17.60005 36785 ft 473 kts 174°
2026-04-25 16:37 50.00392 17.61140 36942 ft 473 kts 173°
2026-04-25 16:37 49.97184 17.62273 36922 ft 471 kts 173°
2026-04-25 16:38 49.90836 17.64514 36928 ft 464 kts 174°
2026-04-25 16:38 49.84560 17.66720 36941 ft 462 kts 174°
2026-04-25 16:39 49.78295 17.68909 36936 ft 462 kts 174°
2026-04-25 16:39 49.72022 17.71099 36946 ft 462 kts 174°
2026-04-25 16:40 49.65754 17.73280 36935 ft 462 kts 174°
2026-04-25 16:40 49.59464 17.75464 36938 ft 463 kts 174°
2026-04-25 16:41 49.53173 17.77645 36939 ft 464 kts 174°
2026-04-25 16:41 49.43709 17.80913 36944 ft 465 kts 174°
2026-04-25 16:42 49.37382 17.83091 36941 ft 466 kts 174°
2026-04-25 16:42 49.31053 17.85266 36940 ft 466 kts 174°
2026-04-25 16:43 49.24767 17.87418 36940 ft 466 kts 174°
2026-04-25 16:43 49.18425 17.89582 36940 ft 467 kts 174°
2026-04-25 16:44 49.12086 17.91744 36938 ft 466 kts 174°
2026-04-25 16:44 49.05765 17.93895 36934 ft 465 kts 174°
2026-04-25 16:45 48.99432 17.95434 36947 ft 455 kts 184°
2026-04-25 16:45 48.93117 17.95747 36946 ft 453 kts 185°
2026-04-25 16:46 48.86813 17.96003 36930 ft 453 kts 185°
2026-04-25 16:46 48.82633 17.96211 36935 ft 452 kts 185°
2026-04-25 16:47 48.74244 17.96693 36935 ft 453 kts 185°
2026-04-25 16:47 48.67946 17.97071 36939 ft 453 kts 185°
2026-04-25 16:48 48.61651 17.97450 36939 ft 452 kts 185°
2026-04-25 16:48 48.55367 17.97826 36938 ft 451 kts 185°
2026-04-25 16:49 48.49103 17.98197 36937 ft 451 kts 185°
2026-04-25 16:49 48.42830 17.98565 36940 ft 451 kts 185°
2026-04-25 16:50 48.36594 17.98934 36937 ft 450 kts 185°
2026-04-25 16:50 48.30325 17.99301 36948 ft 451 kts 185°
2026-04-25 16:51 48.24039 17.99670 36944 ft 452 kts 185°
2026-04-25 16:51 48.19827 17.99917 36942 ft 452 kts 185°
2026-04-25 16:52 48.05199 18.00771 36952 ft 452 kts 185°
2026-04-25 16:52 47.95133 18.01357 36955 ft 452 kts 185°
2026-04-25 16:53 47.85684 18.01904 36956 ft 453 kts 185°
2026-04-25 16:54 47.79378 18.02265 36960 ft 453 kts 185°
2026-04-25 16:54 47.73068 18.02630 36963 ft 453 kts 185°
2026-04-25 16:55 47.66769 18.02994 36963 ft 453 kts 185°
2026-04-25 16:55 47.60513 18.03352 36963 ft 453 kts 185°
2026-04-25 16:56 47.54207 18.03710 36969 ft 453 kts 185°
2026-04-25 16:56 47.47900 18.04068 36962 ft 453 kts 185°
2026-04-25 16:57 47.41592 18.04435 36963 ft 454 kts 184°
2026-04-25 16:57 47.35281 18.04792 36965 ft 454 kts 184°
2026-04-25 16:58 47.28970 18.05144 36954 ft 454 kts 184°
2026-04-25 16:58 47.22657 18.05499 36961 ft 454 kts 184°
2026-04-25 16:59 47.16345 18.05854 36963 ft 454 kts 184°
2026-04-25 16:59 47.10071 18.06208 36967 ft 454 kts 184°
2026-04-25 17:00 47.03751 18.06562 36966 ft 454 kts 184°
2026-04-25 17:00 46.97431 18.06915 36961 ft 454 kts 184°
2026-04-25 17:01 46.90375 18.07313 36964 ft 454 kts 184°
2026-04-25 17:01 46.71026 18.08370 36980 ft 454 kts 184°
2026-04-25 17:02 46.64689 18.08730 36972 ft 456 kts 183°
2026-04-25 17:02 46.58381 18.09088 36980 ft 457 kts 184°
2026-04-25 17:03 46.52011 18.09435 36977 ft 459 kts 183°
2026-04-25 17:03 46.45610 18.09774 36981 ft 460 kts 183°
2026-04-25 17:04 46.39197 18.10124 36984 ft 462 kts 183°
2026-04-25 17:04 46.32769 18.10481 36982 ft 463 kts 183°
2026-04-25 17:05 46.27417 18.10775 36983 ft 463 kts 183°
2026-04-25 17:05 46.18083 18.11284 36991 ft 462 kts 183°
2026-04-25 17:06 46.11651 18.11632 36990 ft 462 kts 183°
2026-04-25 17:06 46.05214 18.11980 36988 ft 462 kts 183°
2026-04-25 17:07 45.98785 18.12328 36993 ft 462 kts 183°
2026-04-25 17:07 45.92390 18.12672 36990 ft 461 kts 183°
2026-04-25 17:08 45.85993 18.13012 36990 ft 461 kts 183°
2026-04-25 17:08 45.79563 18.13350 36987 ft 461 kts 182°
2026-04-25 17:09 45.73150 18.14487 36996 ft 466 kts 175°
2026-04-25 17:09 45.66770 18.16119 36985 ft 465 kts 175°
2026-04-25 17:10 45.60435 18.17742 36975 ft 459 kts 175°
2026-04-25 17:10 45.54208 18.19265 36970 ft 454 kts 175°
2026-04-25 17:11 45.47960 18.20752 36992 ft 458 kts 175°
2026-04-25 17:11 45.41627 18.22248 36990 ft 464 kts 175°
2026-04-25 17:12 45.35234 18.23759 36985 ft 467 kts 175°
2026-04-25 17:12 45.28813 18.25276 36975 ft 469 kts 175°
2026-04-25 17:13 45.23455 18.26535 36968 ft 469 kts 175°
2026-04-25 17:13 45.15990 18.28296 36965 ft 467 kts 174°
2026-04-25 17:14 45.09582 18.29801 36968 ft 466 kts 174°
2026-04-25 17:14 45.03201 18.31294 36978 ft 463 kts 174°
2026-04-25 17:15 44.96846 18.32779 36978 ft 461 kts 174°
2026-04-25 17:15 44.90565 18.34243 36979 ft 460 kts 174°
2026-04-25 17:16 44.84257 18.35709 36980 ft 458 kts 174°
2026-04-25 17:16 44.77969 18.37167 36978 ft 458 kts 174°
2026-04-25 17:17 44.71681 18.38623 36985 ft 457 kts 174°
2026-04-25 17:17 44.65386 18.40076 36996 ft 458 kts 174°
2026-04-25 17:18 44.59124 18.41520 36991 ft 460 kts 173°
2026-04-25 17:18 44.52805 18.42972 36996 ft 461 kts 173°
2026-04-25 17:19 44.46458 18.44427 36994 ft 462 kts 173°
2026-04-25 17:19 44.40110 18.45881 36990 ft 463 kts 173°
2026-04-25 17:20 44.33751 18.47335 36993 ft 463 kts 173°
2026-04-25 17:20 44.27366 18.48783 36990 ft 463 kts 173°
2026-04-25 17:21 44.21004 18.50234 36991 ft 463 kts 173°
2026-04-25 17:21 44.14678 18.51673 36991 ft 463 kts 173°
2026-04-25 17:22 44.09387 18.52873 36988 ft 463 kts 173°
2026-04-25 17:22 44.01962 18.54549 36988 ft 461 kts 173°
2026-04-25 17:23 43.95659 18.55970 36989 ft 461 kts 173°
2026-04-25 17:23 43.89327 18.57396 36989 ft 460 kts 173°
2026-04-25 17:24 43.83001 18.58816 36995 ft 460 kts 172°
2026-04-25 17:24 43.76674 18.60232 36992 ft 460 kts 172°
2026-04-25 17:25 43.70356 18.61645 36991 ft 460 kts 172°
2026-04-25 17:25 43.64029 18.63060 36988 ft 459 kts 172°
2026-04-25 17:26 43.57747 18.64458 37000 ft 460 kts 172°
2026-04-25 17:26 43.51421 18.65862 37002 ft 460 kts 172°
2026-04-25 17:27 43.45090 18.67264 37001 ft 461 kts 172°
2026-04-25 17:27 43.40853 18.68203 36994 ft 461 kts 172°
2026-04-25 17:28 43.32413 18.70066 37011 ft 461 kts 172°
2026-04-25 17:28 43.26060 18.71464 36995 ft 462 kts 172°
2026-04-25 17:29 43.19743 18.72851 36998 ft 462 kts 172°
2026-04-25 17:29 43.13380 18.74245 37001 ft 463 kts 172°
2026-04-25 17:30 43.07007 18.75642 37005 ft 463 kts 172°
2026-04-25 17:30 43.00660 18.77029 37006 ft 463 kts 171°
2026-04-25 17:31 42.94290 18.78417 37012 ft 462 kts 171°
2026-04-25 17:31 42.87971 18.79791 37009 ft 462 kts 171°
2026-04-25 17:32 42.81588 18.81177 37006 ft 462 kts 171°
2026-04-25 17:32 42.75260 18.82546 37010 ft 461 kts 171°
2026-04-25 17:33 42.68915 18.83919 37010 ft 461 kts 171°
2026-04-25 17:33 42.62614 18.85278 37006 ft 460 kts 171°
2026-04-25 17:34 42.56316 18.86633 37011 ft 460 kts 171°
2026-04-25 17:34 42.49976 18.87995 37028 ft 460 kts 171°
2026-04-25 17:35 42.43667 18.89348 37015 ft 460 kts 171°
2026-04-25 17:35 42.37361 18.90698 37021 ft 460 kts 171°
2026-04-25 17:36 42.31033 18.92047 37021 ft 460 kts 171°
2026-04-25 17:36 42.24694 18.93399 37010 ft 460 kts 171°
2026-04-25 17:37 42.18368 18.94746 37005 ft 460 kts 171°
2026-04-25 17:37 42.12038 18.96089 37010 ft 460 kts 171°
2026-04-25 17:38 42.07853 18.96975 37004 ft 460 kts 171°
2026-04-25 17:38 41.99421 18.98757 37009 ft 460 kts 171°
2026-04-25 17:39 41.93094 19.00092 37019 ft 460 kts 170°
2026-04-25 17:39 41.86764 19.01425 37006 ft 460 kts 169°
2026-04-25 17:40 41.80428 19.02758 37015 ft 461 kts 169°
2026-04-25 17:40 41.74074 19.04089 37007 ft 461 kts 169°
2026-04-25 17:41 41.67762 19.05414 37013 ft 461 kts 169°
2026-04-25 17:41 41.61385 19.06748 37008 ft 461 kts 169°
2026-04-25 17:42 41.55084 19.08062 37017 ft 460 kts 169°
2026-04-25 17:42 41.48755 19.09380 37017 ft 460 kts 169°
2026-04-25 17:43 41.42566 19.11357 37030 ft 455 kts 158°
2026-04-25 17:43 41.36637 19.14327 37023 ft 455 kts 157°
2026-04-25 17:44 41.30724 19.17313 37017 ft 455 kts 157°
2026-04-25 17:44 41.24777 19.20249 37021 ft 455 kts 158°
2026-04-25 17:45 41.20838 19.22169 37019 ft 455 kts 158°
2026-04-25 17:45 41.12908 19.26015 37019 ft 456 kts 158°
2026-04-25 17:46 41.06944 19.28902 37016 ft 456 kts 158°
2026-04-25 17:46 41.00962 19.31795 36769 ft 461 kts 158°
2026-04-25 17:47 40.97932 19.33260 36267 ft 462 kts 158°
2026-04-25 17:47 40.94918 19.34713 35662 ft 461 kts 157°
2026-04-25 17:47 40.91906 19.36166 35018 ft 462 kts 157°
2026-04-25 17:47 40.88880 19.37623 34367 ft 463 kts 157°
2026-04-25 17:48 40.82819 19.40539 33006 ft 465 kts 157°
2026-04-25 17:48 40.79778 19.41999 32296 ft 466 kts 157°
2026-04-25 17:48 40.76761 19.43446 31571 ft 467 kts 157°
2026-04-25 17:49 40.73700 19.44914 30842 ft 468 kts 157°
2026-04-25 17:49 40.70649 19.46374 30335 ft 463 kts 158°
2026-04-25 17:49 40.67626 19.47819 29797 ft 459 kts 158°
2026-04-25 17:49 40.64638 19.49248 29270 ft 455 kts 158°
2026-04-25 17:50 40.61670 19.50667 28737 ft 451 kts 158°
2026-04-25 17:50 40.58736 19.52067 28212 ft 447 kts 158°
2026-04-25 17:50 40.55822 19.53453 27705 ft 443 kts 158°
2026-04-25 17:50 40.52946 19.54816 27244 ft 438 kts 158°
2026-04-25 17:51 40.50085 19.56169 26720 ft 434 kts 158°
2026-04-25 17:51 40.47257 19.57506 26216 ft 431 kts 158°
2026-04-25 17:51 40.44436 19.58840 25712 ft 431 kts 158°
2026-04-25 17:51 40.41603 19.60181 25193 ft 432 kts 158°
2026-04-25 17:52 40.38821 19.61496 24671 ft 429 kts 158°
2026-04-25 17:52 40.37870 19.61945 24499 ft 427 kts 158°
2026-04-25 17:52 40.33258 19.64122 23641 ft 421 kts 158°
2026-04-25 17:52 40.30509 19.65417 23130 ft 418 kts 158°
2026-04-25 17:53 40.27777 19.66704 22626 ft 415 kts 158°
2026-04-25 17:53 40.25947 19.67565 22287 ft 413 kts 158°
2026-04-25 17:53 40.22381 19.69242 21619 ft 409 kts 158°
2026-04-25 17:53 40.19714 19.70494 21116 ft 406 kts 158°
2026-04-25 17:54 40.17960 19.71317 20787 ft 404 kts 158°
2026-04-25 17:54 40.15359 19.72539 20278 ft 401 kts 158°
2026-04-25 17:54 40.12785 19.73745 19808 ft 398 kts 158°
2026-04-25 17:54 40.10184 19.74964 19312 ft 395 kts 158°
2026-04-25 17:55 40.07609 19.76170 18830 ft 392 kts 158°
2026-04-25 17:55 40.05046 19.77371 18337 ft 390 kts 158°
2026-04-25 17:55 40.02497 19.78563 17864 ft 388 kts 158°
2026-04-25 17:55 39.99964 19.79747 17383 ft 385 kts 158°
2026-04-25 17:56 39.97451 19.80921 16908 ft 382 kts 158°
2026-04-25 17:56 39.94950 19.82089 16433 ft 380 kts 158°
2026-04-25 17:56 39.92469 19.83245 15961 ft 377 kts 158°
2026-04-25 17:56 39.90001 19.84382 15491 ft 375 kts 160°
2026-04-25 17:57 39.87470 19.85205 15022 ft 374 kts 168°
2026-04-25 17:57 39.84945 19.85756 14566 ft 372 kts 170°
2026-04-25 17:57 39.82394 19.86247 14103 ft 369 kts 170°
2026-04-25 17:57 39.80678 19.86579 13791 ft 368 kts 170°
2026-04-25 17:58 39.77345 19.87257 13185 ft 364 kts 170°
2026-04-25 17:58 39.74853 19.87790 12731 ft 362 kts 170°
2026-04-25 17:58 39.72382 19.88332 12277 ft 359 kts 170°
2026-04-25 17:58 39.69922 19.88877 11828 ft 356 kts 170°
2026-04-25 17:59 39.67495 19.89418 11385 ft 353 kts 170°
2026-04-25 17:59 39.65066 19.89958 10934 ft 351 kts 170°
2026-04-25 17:59 39.62691 19.90485 10740 ft 340 kts 170°
2026-04-25 17:59 39.60373 19.90830 10559 ft 331 kts 182°
2026-04-25 18:00 39.58145 19.90321 10443 ft 320 kts 193°
2026-04-25 18:00 39.56033 19.89681 10276 ft 312 kts 191°
2026-04-25 18:00 39.53937 19.89128 10131 ft 303 kts 191°
2026-04-25 18:00 39.51927 19.88474 10041 ft 293 kts 195°
2026-04-25 18:01 39.49985 19.87796 9865 ft 287 kts 194°
2026-04-25 18:01 39.48046 19.87192 9579 ft 285 kts 193°
2026-04-25 18:01 39.46114 19.86641 9296 ft 283 kts 190°
2026-04-25 18:01 39.44188 19.86135 9010 ft 282 kts 190°
2026-04-25 18:02 39.42204 19.85939 8350 ft 284 kts 189°
2026-04-25 18:02 39.40451 19.85426 9236 ft 238 kts 198°
2026-04-25 18:02 39.38872 19.84734 8913 ft 250 kts 198°
2026-04-25 18:02 39.37136 19.84064 8159 ft 271 kts 195°
2026-04-25 18:03 39.35281 19.83444 7745 ft 279 kts 193°
2026-04-25 18:03 39.33387 19.82843 7414 ft 280 kts 193°
2026-04-25 18:03 39.31511 19.82270 7129 ft 281 kts 191°
2026-04-25 18:03 39.29585 19.82272 6738 ft 279 kts 160°
2026-04-25 18:04 39.28037 19.83671 6471 ft 272 kts 124°
2026-04-25 18:04 39.27427 19.85928 6232 ft 268 kts 91°
2026-04-25 18:04 39.27391 19.88323 5981 ft 266 kts 91°
2026-04-25 18:04 39.27336 19.90708 5698 ft 265 kts 90°
2026-04-25 18:05 39.27343 19.93080 5425 ft 263 kts 87°
2026-04-25 18:05 39.27454 19.95431 5176 ft 261 kts 84°
2026-04-25 18:05 39.27861 19.97655 4887 ft 258 kts 59°
2026-04-25 18:05 39.29112 19.99194 4827 ft 247 kts 26°
2026-04-25 18:06 39.30734 19.99717 4694 ft 245 kts 359°
2026-04-25 18:06 39.32404 19.99384 4565 ft 239 kts 347°
2026-04-25 18:06 39.34002 19.98885 4434 ft 233 kts 347°
2026-04-25 18:06 39.35563 19.98398 4234 ft 230 kts 347°
2026-04-25 18:07 39.37126 19.98036 4016 ft 225 kts 357°
2026-04-25 18:07 39.38666 19.97978 3787 ft 219 kts 358°
2026-04-25 18:07 39.40168 19.97912 3535 ft 213 kts 358°
2026-04-25 18:07 39.41634 19.97840 3300 ft 208 kts 358°
2026-04-25 18:08 39.43047 19.97602 3065 ft 203 kts 343°
2026-04-25 18:08 39.44369 19.97057 2874 ft 198 kts 344°
2026-04-25 18:08 39.45659 19.96563 2660 ft 188 kts 344°
2026-04-25 18:08 39.46873 19.96103 2464 ft 176 kts 343°
2026-04-25 18:09 39.48010 19.95675 2267 ft 164 kts 343°
2026-04-25 18:09 39.49078 19.95274 2109 ft 161 kts 342°
2026-04-25 18:09 39.50135 19.94873 1933 ft 158 kts 343°
2026-04-25 18:09 39.50833 19.94607 1784 ft 157 kts 342°
2026-04-25 18:10 39.52197 19.94009 1499 ft 155 kts 337°
2026-04-25 18:10 39.53206 19.93493 1218 ft 157 kts 336°
2026-04-25 18:10 39.54216 19.92974 1001 ft 155 kts 337°
2026-04-25 18:10 39.55229 19.92548 833 ft 152 kts 344°
2026-04-25 18:11 39.56256 19.92213 658 ft 153 kts 346°
2026-04-25 18:11 39.57302 19.91951 463 ft 154 kts 348°
2026-04-25 18:11 39.58358 19.91689 240 ft 154 kts 347°
2026-04-25 18:11 39.59410 19.91417 26 ft 152 kts 348°
2026-04-25 18:12 39.60347 19.91171 19 ft 118 kts 349°
2026-04-25 18:12 39.60877 19.91036 18 ft 32 kts 349°
2026-04-25 18:12 39.61024 19.91038 18 ft 14 kts 44°
2026-04-25 18:12 39.61053 19.91111 20 ft 5 kts 122°
2026-04-25 18:13 39.61039 19.91121 18 ft 0 kts 157°
2026-04-25 18:14 39.61028 19.91127 18 ft 7 kts 157°
2026-04-25 18:14 39.60946 19.91155 18 ft 14 kts 167°
2026-04-25 18:14 39.60855 19.91180 17 ft 13 kts 168°
2026-04-25 18:14 39.60768 19.91202 17 ft 8 kts 169°
2026-04-25 18:15 39.60749 19.91237 17 ft 5 kts 87°
2026-04-25 18:15 39.60753 19.91280 17 ft 5 kts 78°
2026-04-25 18:15 39.60759 19.91318 17 ft 0 kts 78°
2026-04-25 18:15 39.60759 19.91320 17 ft 0 kts 78°